Location: Newark
(13.6797°N, 8.5297°E)
Time: 21:57:50
(UTC+00:00)

Courier 1B Rocket - Pass Details

Date: 20 January 2020
Orbit: 920 x 1202 km, 28.2° (Epoch: 19 February)

Event Time Altitude Azimuth Distance (km) Brightness Sun altitude
Rises 08:18:21 0° 211° (SSW) 4,044 8.3 30.6°
Reaches altitude 10° 08:22:03 10° 196° (SSW) 3,046 7.9 31.4°
Maximum altitude 08:27:25 21° 150° (SSE) 2,272 8.4 32.4°
Drops below altitude 10° 08:32:33 10° 104° (ESE) 2,906 8.7 33.4°
Sets 08:35:56 0° 88° (E) 3,808 8.8 34.1°
